Change the Weather History Date:

Wednesday, March 12, 2014

  Actual Average Record
Temperature  
Mean Temperature 78 °F -  
Max Temperature 89 °F - - ()
Min Temperature 68 °F - - ()
Cooling Degree Days 14    
Growing Degree Days 28 (Base 50)    
Moisture  
Dew Point 70 °F    
Average Humidity 78    
Maximum Humidity 100    
Minimum Humidity 42    
Precipitation  
Precipitation 0.00 in - - ()
Sea Level Pressure  
Sea Level Pressure 29.92 in    
Wind  
Wind Speed 0 mph ()    
Max Wind Speed 0 mph    
Max Gust Speed -    
Visibility 9.7 miles    
Events      
T = Trace of Precipitation, MM = Missing Value Source: Averaged Metar Reports

Daily Weather History Graph

Daily Weather History Graph

Search for Another Location

Airport or City:

Trip Planner

Search our weather history database for the weather conditions in past years. The results will help you decide how hot, cold, wet, or windy it might be!

Date:

Astronomy

Mar. 12, 2014 Rise Set
Actual Time 6:34 AM EAT 6:43 PM EAT
Civil Twilight 6:13 AM EAT 7:04 PM EAT
Nautical Twilight 5:49 AM EAT 7:29 PM EAT
Astronomical Twilight 5:24 AM EAT 7:53 PM EAT
Moon 3:41 PM EAT (3/12) 3:02 AM EAT (3/12)
Length of Visible Light 12h 51m
Length of Day
12h 09m
Waxing Gibbous, 83% of the Moon is Illuminated
Mar 12
Waxing Gibbous
Mar 16
Full
Mar 24
Last Quarter
Mar 30
New
Apr 7
First Quarter

Hourly Weather History & Observations

Time (EAT) Temp. Heat Index Dew Point Humidity Pressure Visibility Wind Dir Wind Speed Gust Speed Precip Events Conditions
12:00 AM 71 °F - 69 °F 92%  in 19 mi Calm Calm - -   Mostly Cloudy
12:00 AM 71.6 °F - 69.8 °F 94% 29.92 in 6.2 mi Calm Calm - N/A   Mostly Cloudy
1:00 AM 71.6 °F - 69.8 °F 94% 29.92 in 6.2 mi Calm Calm - N/A   Mostly Cloudy
2:00 AM 71.6 °F - 69.8 °F 94% 29.92 in 6.2 mi Calm Calm - N/A   Mostly Cloudy
3:00 AM 72 °F - 70 °F 91%  in 19 mi Calm Calm - -   Partly Cloudy
3:00 AM 71.6 °F - 69.8 °F 94% 29.83 in 6.2 mi Calm Calm - N/A   Scattered Clouds
4:00 AM 71.6 °F - 71.6 °F 100% 29.89 in 6.2 mi Calm Calm - N/A   Mostly Cloudy
5:00 AM 71.6 °F - 71.6 °F 100% 29.89 in 6.2 mi Calm Calm - N/A   Mostly Cloudy
6:00 AM 69 °F - 68 °F 94%  in 19 mi Calm Calm - -   Partly Cloudy
6:00 AM 68.0 °F - 68.0 °F 100% 29.89 in 6.2 mi Calm Calm - N/A   Scattered Clouds
7:00 AM 68.0 °F - 68.0 °F 100% 29.95 in 6.2 mi Calm Calm - N/A   Mostly Cloudy
8:00 AM 71.6 °F - 69.8 °F 94% 29.98 in 6.2 mi Calm Calm - N/A   Mostly Cloudy
9:00 AM 76 °F - 71 °F 80%  in 19 mi Calm Calm - -   Partly Cloudy
9:00 AM 75.2 °F - 71.6 °F 89% 29.98 in 6.2 mi Calm Calm - N/A   Scattered Clouds
10:00 AM 78.8 °F - 68.0 °F 69% 30.01 in 6.2 mi Calm Calm - N/A   Scattered Clouds
12:00 PM 84 °F - 68 °F 50%  in 19 mi Calm Calm - -   Partly Cloudy
12:00 PM 84.2 °F 87.3 °F 68.0 °F 58% 29.98 in 6.2 mi Calm Calm - N/A   Scattered Clouds
1:00 PM 86.0 °F 90.4 °F 69.8 °F 58% 29.95 in 6.2 mi Calm Calm - N/A   Scattered Clouds
2:00 PM - - - N/A% - - North - - N/A   Unknown
3:00 PM 89 °F - 69 °F 42%  in 19 mi Calm Calm - -   Partly Cloudy
3:00 PM 87.8 °F 92.6 °F 69.8 °F 55% 29.89 in 6.2 mi Calm Calm - N/A   Scattered Clouds
4:00 PM 87.8 °F 92.6 °F 69.8 °F 55% 29.86 in 6.2 mi Calm Calm - N/A   Scattered Clouds
5:00 PM 87.8 °F 93.8 °F 71.6 °F 58% 29.86 in 6.2 mi Calm Calm - N/A   Scattered Clouds
6:00 PM 86 °F - 70 °F 50%  in 19 mi Calm Calm - -   Partly Cloudy
6:00 PM 86.0 °F 90.4 °F 69.8 °F 58% 29.86 in 6.2 mi Calm Calm - N/A   Scattered Clouds
8:00 PM 80.6 °F 85.4 °F 73.4 °F 79% 29.89 in 6.2 mi Calm Calm - N/A   Partly Cloudy
9:00 PM 80 °F - 74 °F 76%  in 19 mi Calm Calm - -   Mostly Cloudy
9:00 PM 78.8 °F - 73.4 °F 83% 29.92 in 6.2 mi Calm Calm - N/A   Mostly Cloudy
10:00 PM 78.8 °F - 73.4 °F 83% 29.95 in 6.2 mi Calm Calm - N/A   Mostly Cloudy
11:00 PM 78.8 °F - 73.4 °F 83% 29.95 in 6.2 mi Calm Calm - N/A   Mostly Cloudy